Location: Wildlife_Club
(35.6000°N, 81.4330°W)
Time: 02:02:16
(UTC-04:00)

Vanguard 2 Rocket - Pass Details

Date: 20 June 2019
Orbit: 554 x 3326 km, 32.9° (Epoch: 15 July)

Event Time Altitude Azimuth Distance (km) Brightness Sun altitude
Rises 01:43:38 0° 267° (W) 4,862 10.6 -30.8°
Reaches altitude 10° 01:46:17 10° 266° (W) 4,169 10.2 -30.8°
Maximum altitude 01:58:36 81° 182° (S) 2,644 8.9 -30.5°
Drops below altitude 10° 02:18:15 10° 99° (E) 6,252 11.2 -29.7°
Sets 02:23:17 0° 99° (E) 7,313 11.6 -29.5°
